Nellis AFB, NV

4:28 PM PST on December 15, 2019 (GMT -0800)
Nellis Air Force Base

Weather History for KLSV - October, 2019

Change the Weather History Date:

Wednesday, October 23, 2019

  Actual Average Record
Temperature  
Mean Temperature 68 °F -  
Max Temperature 83 °F 74 °F 90 °F (2017)
Min Temperature 53 °F 50 °F 35 °F (1996)
Cooling Degree Days 2    
Growing Degree Days 18 (Base 50)    
Moisture  
Dew Point 24 °F    
Average Humidity 19    
Maximum Humidity 31    
Minimum Humidity 11    
Precipitation  
Precipitation 0.00 in - - ()
Sea Level Pressure  
Sea Level Pressure 29.97 in    
Wind  
Wind Speed 5 mph (North)    
Max Wind Speed 15 mph    
Max Gust Speed 23 mph    
Visibility 10 miles    
Events      
Averages and records for this station are not official NWS values.
T = Trace of Precipitation, MM = Missing Value Source: NWS Daily Summary

Daily Weather History Graph

Daily Weather History Graph

Search for Another Location

Airport or City:

Astronomy

Oct. 23, 2019 Rise Set
Actual Time 6:54 AM PDT 5:54 PM PDT
Civil Twilight 6:28 AM PDT 6:20 PM PDT
Nautical Twilight 5:58 AM PDT 6:50 PM PDT
Astronomical Twilight 5:28 AM PDT 7:20 PM PDT
Moon 1:30 AM PDT (10/23) 3:35 PM PDT (10/23)
Length of Visible Light 11h 52m
Length of Day
10h 59m
Waning Crescent, 25% of the Moon is Illuminated
Oct 23
Waning Crescent
Oct 27
New
Nov 4
First Quarter
Nov 12
Full
Nov 19
Last Quarter

Hourly Weather History & Observations

Time (PDT) Temp. Dew Point Humidity Pressure Visibility Wind Dir Wind Speed Gust Speed Precip Events Conditions
12:56 AM 56.1 °F 21.7 °F 26% 30.01 in 10.0 mi NE 5.8 mph - N/A   Clear
1:58 AM 64.2 °F 25.7 °F 23% 29.99 in 10.0 mi NE 6.9 mph - N/A   Clear
2:58 AM 57.0 °F 24.3 °F 28% 29.99 in 10.0 mi Calm Calm - N/A   Clear
3:58 AM 57.4 °F 25.3 °F 29% 29.98 in 10.0 mi Calm Calm - N/A   Clear
4:58 AM 55.4 °F 23.7 °F 29% 29.99 in 10.0 mi Calm Calm - N/A   Clear
6:58 AM 53.8 °F 23.9 °F 31% 30.01 in 10.0 mi Calm Calm - N/A   Clear
7:58 AM 56.7 °F 24.8 °F 29% 30.02 in 10.0 mi Calm Calm - N/A   Clear
8:58 AM 61.7 °F 26.4 °F 26% 30.04 in 10.0 mi SE 3.5 mph - N/A   Clear
9:58 AM 70.3 °F 29.7 °F 22% 30.04 in 10.0 mi Calm Calm - N/A   Clear
10:43 AM 77.0 °F 28.4 °F 17% 30.02 in 10.0 mi NW 13.8 mph 19.6 mph N/A   Clear
10:58 AM 77.2 °F 28.9 °F 17% 30.02 in 10.0 mi West 6.9 mph - N/A   Clear
11:58 AM 80.1 °F 28.2 °F 15% 30.00 in 10.0 mi West 8.1 mph - N/A   Clear
12:58 PM 82.0 °F 26.2 °F 13% 29.96 in 10.0 mi North 11.5 mph 19.6 mph N/A   Clear
1:58 PM 82.9 °F 23.0 °F 11% 29.94 in 10.0 mi North 15.0 mph 23.0 mph N/A   Clear
2:16 PM 82.4 °F 24.8 °F 12% 29.94 in 10.0 mi North 13.8 mph - N/A   Clear
2:58 PM 82.8 °F 25.0 °F 12% 29.93 in 10.0 mi North 13.8 mph - N/A   Clear
3:58 PM 82.6 °F 24.8 °F 12% 29.92 in 10.0 mi NNE 9.2 mph - N/A   Clear
4:58 PM 82.4 °F 24.6 °F 12% 29.90 in 10.0 mi NNE 11.5 mph - N/A   Clear
5:58 PM 79.2 °F 24.1 °F 13% 29.91 in 10.0 mi ENE 4.6 mph - N/A   Clear
7:00 PM 73.0 °F 19.6 °F 13% 29.93 in 10.0 mi North 2.3 mph - N/A   Clear
7:57 PM 69.4 °F 24.1 °F 18% 29.93 in 10.0 mi NW 6.9 mph - N/A   Clear
8:55 PM 68.0 °F 22.8 °F 18% 29.95 in 10.0 mi Calm Calm - N/A   Clear
9:56 PM 65.5 °F 18.1 °F 16% 29.96 in 10.0 mi West 3.5 mph - N/A   Clear
10:57 PM 66.9 °F 10.6 °F 11% 29.96 in 10.0 mi Variable 4.6 mph - N/A   Clear
11:56 PM 67.6 °F 11.3 °F 11% 29.98 in 10.0 mi NNW 10.4 mph - N/A   Clear